Location: Bonny Doon Airfield
(37.0704°N, 122.1252°W)
Time: 11:38:24
(UTC-08:00)

Envisat - Pass Details

Date: 09 October 2017
Orbit: 764 x 766 km, 98.2° (Epoch: 15 December)

Event Time Altitude Azimuth Distance (km) Brightness Sun altitude
Exits shadow 20:24:58 35° 46° (NE) 1,233 3.7 -21.8°
Drops below altitude 10° 20:28:42 10° 5° (N) 2,309 5.5 -22.6°
Sets 20:31:09 0° 357° (N) 3,240 6.4 -23.0°
